Regional Weather Roundup
Issued by NWS

Home | Current Version | Previous Version | Graphics & Text | Print | Product List | Glossary Off
Versions: 1 2 3 4 5 6 7 8 9 10 11 12 13 14 15 16 17 18 19 20 21 22 23 24 25 26 27 28 29 30 31 32 33 34 35 36 37 38 39 40 41 42 43 44 45 46 47 48 49 50

000
ASUS43 KMKX 221900
RWRWI

WISCONSIN REGIONAL WEATHER ROUNDUP
NATIONAL WEATHER SERVICE MILWAUKEE/SULLIVAN WI
200 PM CDT MON SEP 22 2014

NOTE: "FAIR" INDICATES FEW OR NO CLOUDS BELOW 12,000 FEET WITH NO
SIGNIFICANT WEATHER AND/OR OBSTRUCTIONS TO VISIBILITY.

WIZ001-002-006>008-014>016-023>028-222000-
NORTHWEST WISCONSIN

CITY           SKY/WX    TMP DP  RH WIND       PRES   REMARKS
SUPERIOR ARPT  SUNNY     71  53  53 W8        30.14F
ASHLAND        MOSUNNY   69  51  52 SW10G17   30.15F
HAYWARD        SUNNY     66  48  52 W6        30.19F
SIREN          SUNNY     67  50  54 W9        30.20F
RICE LAKE      MOSUNNY   66  50  56 W7        30.23S
LADYSMITH      SUNNY     65  51  61 W8        30.22F
EAU CLAIRE     NOT AVBL
MENOMONIE      PTCLDY    68  50  52 W8        30.23F
NEW RICHMOND   MOSUNNY   68  49  51 W9        30.23F
OSCEOLA        SUNNY     68  52  56 W7        30.25F
$$

WIZ003>005-009-010-017-018-222000-
NORTH CENTRAL WISCONSIN

CITY           SKY/WX    TMP DP  RH WIND       PRES   REMARKS
WOODRUFF       MOSUNNY   62  49  62 W7G17     30.18F
RHINELANDER    MOSUNNY   63  47  55 W13G18    30.19F
EAGLE RIVER    PTSUNNY   62  46  54 W9        30.17F
LAND O LAKES   MOSUNNY   65  46  51 W6        30.17F
PHILLIPS       MOSUNNY   62  49  63 SW8       30.19F
TOMAHAWK       MOSUNNY   63  47  57 W9        30.20F
MEDFORD        PTSUNNY   62  49  62 W10G18    30.21F
MERRILL        PTSUNNY   64  49  58 W10G17    30.20F
$$

WIZ029-030-035-036-043>047-222000-
CENTRAL WISCONSIN

CITY           SKY/WX    TMP DP  RH WIND       PRES   REMARKS
WAUSAU         PTSUNNY   63  47  55 W9G18     30.20F
MOSINEE        PTSUNNY   63  48  59 W12       30.23F
MARSHFIELD     MOSUNNY   66  50  56 W8        30.21F
STEVENS POINT  CLOUDY    62  46  55 W5        30.22F
WAUPACA        PTSUNNY   68  47  47 NW8       30.22F
WAUTOMA        NOT AVBL
WISC RAPIDS    PTSUNNY   66  48  52 W9        30.23F
CAMP DOUGLAS   NOT AVBL
$$

WIZ011>013-019>022-031-037>040-048>050-222000-
NORTHEAST WISCONSIN

CITY           SKY/WX    TMP DP  RH WIND       PRES   REMARKS
ANTIGO         PTSUNNY   63  48  57 W13G18    30.20F
STURGEON BAY   MOSUNNY   64  45  48 W9        30.18F
GREEN BAY      MOSUNNY   68  47  46 W12G18    30.19F
MANITOWOC      NOT AVBL
APPLETON       PTSUNNY   64  45  48 W8        30.21F
CLINTONVILLE   PTSUNNY   68  45  42 W12G17    30.19F
OSHKOSH        PTSUNNY   67  47  48 NW9       30.21F
$$

WIZ032>034-041-042-053>061-222000-
SOUTHWEST WISCONSIN

CITY           SKY/WX    TMP DP  RH WIND       PRES   REMARKS
LA CROSSE      MOSUNNY   71  51  49 VRB6      30.23F
SPARTA         MOSUNNY   66  48  50 W8        30.25F
VIROQUA        MOCLDY    67  49  54 SW7       30.26F
BOSCOBEL       SUNNY     69  48  47 W7        30.25F
PRAIRIE DU CHI SUNNY     68  47  46 SW7       30.26F
PLATTEVILLE    FAIR      65  46  49 W7        30.28F
$$

WIZ056-057-062-063-064-067-068-222000-
SOUTH CENTRAL WISCONSIN

CITY           SKY/WX    TMP DP  RH WIND       PRES   REMARKS
BARABOO/DELLS  PTSUNNY   67  46  46 W8        30.24F
LONE ROCK      NOT AVBL
WATERTOWN      SUNNY     66  46  48 NW12      30.24F
MADISON        MOSUNNY   67  44  43 W10       30.25F
MIDDLETON      FAIR      67  45  44 W10G16    30.26F
MONROE         SUNNY     64  43  45 W8G16     30.27F
JANESVILLE     SUNNY     66  43  42 W12       30.25F
$$

WIZ051-052-058>065-066-070>072-222000-
SOUTHEAST WISCONSIN

CITY           SKY/WX    TMP DP  RH WIND       PRES   REMARKS
MILWAUKEE      MOSUNNY   65  43  44 VRB6G17   30.24F
WAUKESHA       MOSUNNY   64  45  48 W7        30.25F
MILWAUKEE/TIMM SUNNY     64  41  42 NW12      30.24F
RACINE         SUNNY     65  44  46 SW6       30.26F
BURLINGTON     SUNNY     64  41  42 W7        30.26F
KENOSHA        SUNNY     65  45  48 SW6       30.26F
FOND DU LAC    PTSUNNY   66  45  46 W10G16    30.23F
SHEBOYGAN      MOSUNNY   66  44  45 W10       30.22F
WEST BEND      SUNNY     64  43  45 W6        30.23F
JUNEAU         MOSUNNY   64  45  51 W8G17     30.25F
$$

LSZ147-162-222000-
LAKE SUPERIOR

STATION/POSITION TIME  TEMP    WIND        PRES    WAVE
                       AIR SEA DIR/SP/G            HT/PER
                 (UTC) (F)     (DEG/KT/KT) (MB)    (FT/S)
W MID LAKE BUOY  1750   51 47  230/ 16/ 17 1019.9F   2/ 3
DEVILS ISLAND    1800   57     230/ 14/ 17 1020.5F
PORT WING        1840   65     250/  9/ 14 1020.7F
SAXON HARBOR     1800   65     270/  6/ 11 1021.7F
$$

LMZ867-665-643>646-222000-
LAKE MICHIGAN

STATION/POSITION TIME  TEMP    WIND        PRES    WAVE
                       AIR SEA DIR/SP/G            HT/PER
                 (UTC) (F)     (DEG/KT/KT) (MB)    (FT/S)
N MID LAKE BUOY  1750   54 57  230/ 16/ 17 1021.4F   2/ 3
NORTHPORT PIER   1800   63     260/  7/ 11 1021.3F
KEWAUNEE LAKESHO 1800   64     280/  4/ 10 1021.8F
SHEBOYGAN LAKESH 1800   62 53  300/  6/ 10 1024.0F
PORT WASHINGTON  1800   65     320/  7/ 12 1024.4F
ATWATER BUOY     1800   61     360/  4/  6 1025.3F
MILWAUKEE LAKESH 1800   62     320/  4/ 10   N/A
S MID LAKE BUOY  1750   55 62  260/  8/ 10 1025.4F   3/ 7
KENOSHA   LAKESH 1800   58     140/  8/ 10 1024.7F
$$

TC  - TEMPERATURE IN CELSIUS
VSB - VISIBILITY IN STATUTE MILES
WCI - WIND CHILL INDEX
HX  - HEAT INDEX



USA.gov is the U.S. government's official web portal to all federal, state and local government web resources and services.